This is the latest recevied weather packets stored in our database for station/object K7FLA. If no packets are shown the sender has not sent any weather packets the latest 10 day(s).
| Time | Temp. | Humidity | Pressure | Rain* | Wind** | Luminosity | Snow |
|---|---|---|---|---|---|---|---|
| 1788374195 | 30° C | 15% | 1097.8 hPa | 0 mm | - | 764 W/m² | - |
| 1788373891 | 30° C | 17% | 1097.8 hPa | 0 mm | - | 760 W/m² | - |
| 1788373586 | 30° C | 15% | 1097.9 hPa | 0 mm | - | 752 W/m² | - |
| 1788373283 | 29.44° C | 15% | 1097.9 hPa | 0 mm | - | 746 W/m² | - |
| 1788372979 | 29.44° C | 16% | 1097.9 hPa | 0 mm | - | 739 W/m² | - |
| 1788372679 | 30° C | 17% | 1097.9 hPa | 0 mm | - | 732 W/m² | - |
| 1788372378 | 29.44° C | 17% | 1097.7 hPa | 0 mm | - | 722 W/m² | - |
| 1788372075 | 29.44° C | 17% | 1098 hPa | 0 mm | - | 714 W/m² | - |
| 1788371774 | 29.44° C | 15% | 1098.1 hPa | 0 mm | - | 706 W/m² | - |
| 1788371470 | 29.44° C | 15% | 1097.9 hPa | 0 mm | - | 696 W/m² | - |
| 1788371166 | 29.44° C | 16% | 1098 hPa | 0 mm | - | 686 W/m² | - |
| 1788370862 | 30° C | 17% | 1098 hPa | 0 mm | - | 674 W/m² | - |
| 1788370561 | 30° C | 15% | 1098.1 hPa | 0 mm | - | 665 W/m² | - |
| 1788370257 | 30° C | 15% | 1098 hPa | 0 mm | - | 653 W/m² | - |
| 1788369956 | 29.44° C | 16% | 1098 hPa | 0 mm | - | 641 W/m² | - |
| 1788369651 | 29.44° C | 16% | 1097.9 hPa | 0 mm | - | 629 W/m² | - |
| 1788369347 | 29.44° C | 17% | 1098.1 hPa | 0 mm | - | 615 W/m² | - |
| 1788369043 | 28.89° C | 17% | 1098.1 hPa | 0 mm | - | 601 W/m² | - |
| 1788368738 | 28.33° C | 18% | 1098 hPa | 0 mm | - | 587 W/m² | - |
| 1788368434 | 27.78° C | 17% | 1097.8 hPa | 0 mm | - | 571 W/m² | - |
| 1788368128 | 27.78° C | 18% | 1097.7 hPa | 0 mm | - | 554 W/m² | - |
| 1788367827 | 26.67° C | 17% | 1097.7 hPa | 0 mm | - | 538 W/m² | - |
| 1788367522 | 26.67° C | 16% | 1097.8 hPa | 0 mm | - | 523 W/m² | - |
| 1788367221 | 26.67° C | 18% | 1097.7 hPa | 0 mm | - | 505 W/m² | - |
| 1788366917 | 26.67° C | 18% | 1097.8 hPa | 0 mm | - | 489 W/m² | - |
* Rain latest hour (hover to see other rain measurements)
** Current wind speed in m/s (hover to see current wind gust speed)